Weather History for Fremont, NE

Change the Weather History Date:

Tuesday, September 18, 2012

  Actual Average Record
Temperature  
Mean Temperature 54 °F -  
Max Temperature 72 °F 78 °F 96 °F (1948)
Min Temperature 36 °F 53 °F 33 °F (1973)
Degree Days  
Heating Degree Days 11    
Growing Degree Days 4 (Base 50)    
Moisture  
Dew Point 39 °F    
Average Humidity 61    
Maximum Humidity 100    
Minimum Humidity 29    
Precipitation  
Precipitation 0.00 in - - ()
Sea Level Pressure  
Sea Level Pressure 30.05 in    
Wind  
Wind Speed 3 mph (SSW)    
Max Wind Speed 10 mph    
Max Gust Speed -    
Visibility 10 miles    
Events      
Averages and records for this station are not official NWS values.
T = Trace of Precipitation, MM = Missing Value Source: NWS Daily Summary

Daily Weather History Graph

Daily Weather History Graph

Search for Another Location

Airport:

Trip Planner

Search our weather history database for the weather conditions in past years. The results will help you decide how hot, cold, wet, or windy it might be!

Date:

Astronomy

Sep. 18, 2012 Rise Set
Actual Time 7:09 AM CDT 7:29 PM CDT
Civil Twilight 6:42 AM CDT 7:56 PM CDT
Nautical Twilight 6:09 AM CDT 8:29 PM CDT
Astronomical Twilight 5:36 AM CDT 9:02 PM CDT
Moon 10:14 AM CDT (9/18) 8:50 PM CDT (9/18)
Length of Visible Light 13h 14m
Length of Day
12h 19m
Waxing Crescent, 9% of the Moon is Illuminated
Sep 18
Waxing Crescent
Sep 22
First Quarter
Sep 29
Full
Oct 8
Last Quarter
Oct 15
New

Hourly Weather History & Observations

Time (CDT) Temp. Windchill Dew Point Humidity Pressure Visibility Wind Dir Wind Speed Gust Speed Precip Events Conditions
12:15 AM 50.4 °F - 41.0 °F 70% 30.09 in 10.0 mi Calm Calm - N/A   Clear
12:35 AM 48.0 °F - 40.8 °F 76% 30.09 in 10.0 mi Calm Calm - N/A   Clear
12:55 AM 48.2 °F - 40.6 °F 75% 30.10 in 10.0 mi Calm Calm - N/A   Clear
1:15 AM 45.1 °F 43.7 °F 40.3 °F 83% 30.10 in 10.0 mi NNW 3.5 mph - N/A   Clear
1:35 AM 45.5 °F - 40.3 °F 82% 30.10 in 10.0 mi Calm Calm - N/A   Clear
1:55 AM 45.7 °F - 40.1 °F 81% 30.10 in 10.0 mi Calm Calm - N/A   Clear
2:15 AM 44.4 °F - 40.3 °F 85% 30.10 in 10.0 mi Calm Calm - N/A   Clear
2:35 AM 43.9 °F 41.3 °F 40.1 °F 87% 30.11 in 10.0 mi West 4.6 mph - N/A   Clear
2:55 AM 43.3 °F 40.7 °F 39.6 °F 87% 30.10 in 10.0 mi WNW 4.6 mph - N/A   Clear
3:15 AM 41.2 °F 39.2 °F 39.2 °F 93% 30.10 in 10.0 mi West 3.5 mph - N/A   Clear
3:35 AM 40.6 °F 38.6 °F 38.5 °F 92% 30.10 in 10.0 mi West 3.5 mph - N/A   Clear
3:55 AM 40.3 °F 37.1 °F 38.5 °F 93% 30.10 in 10.0 mi WNW 4.6 mph - N/A   Clear
4:15 AM 40.1 °F 38.0 °F 38.5 °F 94% 30.10 in 10.0 mi WNW 3.5 mph - N/A   Clear
4:35 AM 40.6 °F 38.6 °F 38.7 °F 93% 30.09 in 10.0 mi WNW 3.5 mph - N/A   Clear
4:55 AM 38.7 °F 36.3 °F 37.6 °F 96% 30.09 in 10.0 mi WNW 3.5 mph - N/A   Clear
5:15 AM 38.3 °F 35.9 °F 37.6 °F 97% 30.10 in 10.0 mi WNW 3.5 mph - N/A   Clear
5:35 AM 38.7 °F 35.2 °F 37.9 °F 97% 30.10 in 10.0 mi WNW 4.6 mph - N/A   Clear
5:55 AM 38.5 °F - 37.6 °F 97% 30.10 in 10.0 mi Calm Calm - N/A   Clear
6:15 AM 37.6 °F 35.1 °F 37.0 °F 98% 30.10 in 10.0 mi WNW 3.5 mph - N/A   Clear
6:35 AM 36.9 °F 34.3 °F 36.5 °F 99% 30.11 in 10.0 mi West 3.5 mph - N/A   Clear
6:55 AM 36.5 °F 32.7 °F 36.3 °F 99% 30.11 in 10.0 mi WNW 4.6 mph - N/A   Clear
7:15 AM 36.5 °F 31.8 °F 36.5 °F 100% 30.11 in 10.0 mi WNW 5.8 mph - N/A   Clear
7:35 AM 37.4 °F 34.9 °F 36.9 °F 98% 30.12 in 10.0 mi WNW 3.5 mph - N/A   Clear
7:55 AM 38.7 °F 36.3 °F 38.3 °F 99% 30.12 in 10.0 mi WNW 3.5 mph - N/A   Clear
8:15 AM 40.3 °F - 39.7 °F 98% 30.12 in 10.0 mi Calm Calm - N/A   Clear
8:35 AM 43.3 °F 40.7 °F 41.7 °F 94% 30.13 in 10.0 mi WNW 4.6 mph - N/A   Clear
9:55 AM 52.0 °F - 43.9 °F 74% 30.13 in 10.0 mi Calm Calm - N/A   Clear
10:15 AM 53.6 °F - 43.9 °F 70% 30.13 in 10.0 mi Calm Calm - N/A   Clear
10:35 AM 55.8 °F - 41.2 °F 58% 30.13 in 10.0 mi Calm Calm - N/A   Clear
10:55 AM 57.9 °F - 41.5 °F 54% 30.12 in 10.0 mi Calm Calm - N/A   Mostly Cloudy
11:15 AM 58.5 °F - 37.9 °F 46% 30.12 in 10.0 mi Calm Calm - N/A   Overcast
11:35 AM 59.7 °F - 39.6 °F 47% 30.12 in 10.0 mi Calm Calm - N/A   Overcast
11:55 AM 61.3 °F - 39.6 °F 45% 30.10 in 10.0 mi Calm Calm - N/A   Scattered Clouds
12:15 PM 62.4 °F - 38.5 °F 41% 30.10 in 10.0 mi West 4.6 mph - N/A   Clear
12:35 PM 62.8 °F - 37.2 °F 39% 30.09 in 10.0 mi Calm Calm - N/A   Clear
12:55 PM 63.9 °F - 36.9 °F 37% 30.08 in 10.0 mi Calm Calm - N/A   Clear
1:15 PM 64.6 °F - 36.1 °F 35% 30.07 in 10.0 mi Calm Calm - N/A   Clear
1:35 PM 65.3 °F - 35.8 °F 34% 30.07 in 10.0 mi Calm Calm - N/A   Clear
1:55 PM 66.6 °F - 35.6 °F 32% 30.05 in 10.0 mi Calm Calm - N/A   Clear
2:15 PM 68.4 °F - 36.0 °F 30% 30.04 in 10.0 mi Calm Calm - N/A   Clear
2:35 PM 68.5 °F - 35.6 °F 30% 30.03 in 10.0 mi Calm Calm - N/A   Clear
2:55 PM 69.4 °F - 36.0 °F 29% 30.02 in 10.0 mi SSW 3.5 mph - N/A   Clear
3:15 PM 70.5 °F - 36.9 °F 29% 30.02 in 10.0 mi SW 3.5 mph - N/A   Clear
3:35 PM 70.3 °F - 36.5 °F 29% 30.01 in 10.0 mi SSE 3.5 mph - N/A   Clear
3:55 PM 70.0 °F - 36.5 °F 29% 30.01 in 10.0 mi South 4.6 mph - N/A   Clear
4:15 PM 71.1 °F - 37.0 °F 29% 29.99 in 10.0 mi SSW 3.5 mph - N/A   Clear
4:55 PM 72.1 °F - 37.8 °F 29% 29.99 in 10.0 mi SW 9.2 mph - N/A   Clear
5:15 PM 72.1 °F - 37.9 °F 29% 29.98 in 10.0 mi South 6.9 mph - N/A   Clear
5:35 PM 72.0 °F - 38.5 °F 30% 29.97 in 10.0 mi South 8.1 mph - N/A   Clear
5:55 PM 72.1 °F - 38.5 °F 29% 29.97 in 10.0 mi South 4.6 mph - N/A   Clear
6:15 PM 71.8 °F - 39.2 °F 31% 29.96 in 10.0 mi SSE 8.1 mph - N/A   Clear
6:35 PM 71.1 °F - 38.7 °F 31% 29.96 in 10.0 mi SE 6.9 mph - N/A   Clear
6:55 PM 69.8 °F - 38.8 °F 32% 29.96 in 10.0 mi SE 9.2 mph - N/A   Clear
7:15 PM 67.6 °F - 39.4 °F 36% 29.96 in 10.0 mi SE 6.9 mph - N/A   Clear
7:35 PM 65.8 °F - 39.9 °F 39% 29.95 in 10.0 mi SE 6.9 mph - N/A   Clear
7:55 PM 63.5 °F - 41.4 °F 44% 29.94 in 10.0 mi SE 6.9 mph - N/A   Clear
8:15 PM 63.0 °F - 41.4 °F 45% 29.94 in 10.0 mi SE 6.9 mph - N/A   Clear
8:35 PM 62.1 °F - 41.7 °F 47% 29.94 in 10.0 mi SE 8.1 mph - N/A   Clear
8:55 PM 62.2 °F - 42.4 °F 48% 29.94 in 10.0 mi SE 8.1 mph - N/A   Clear
9:15 PM 61.7 °F - 42.6 °F 50% 29.94 in 10.0 mi SE 9.2 mph - N/A   Clear
9:35 PM 61.5 °F - 42.1 °F 49% 29.94 in 10.0 mi SE 8.1 mph - N/A   Clear
9:55 PM 60.4 °F - 42.4 °F 51% 29.93 in 10.0 mi SSE 8.1 mph - N/A   Clear
10:15 PM 59.9 °F - 42.8 °F 53% 29.93 in 10.0 mi SE 9.2 mph - N/A   Clear
10:55 PM 59.0 °F - 43.7 °F 57% 29.93 in 10.0 mi SSE 10.4 mph - N/A   Clear
11:15 PM 58.6 °F - 44.1 °F 58% 29.93 in 10.0 mi SSE 8.1 mph - N/A   Clear
11:35 PM 59.5 °F - 44.2 °F 57% 29.92 in 10.0 mi SSE 9.2 mph - N/A   Clear
11:55 PM 59.5 °F - 44.2 °F 57% 29.92 in 10.0 mi SSE 8.1 mph - N/A   Clear